Location: Balaclava NSW 2575, Australia
(34.4510°S, 150.4953°E)
Time: 16:07:03
(UTC+10:00)

Envisat - Pass Details

Date: 17 May 2021
Orbit: 764 x 766 km, 98.1° (Epoch: 18 June)

Event Time Altitude Azimuth Distance (km) Brightness Sun altitude
Rises 17:42:22 0° 173° (S) 3,265 6.0 -8.5°
Reaches altitude 10° 17:44:44 10° 176° (S) 2,331 5.3 -8.9°
Maximum altitude 17:49:46 59° 254° (WSW) 894 3.7 -9.9°
Drops below altitude 10° 17:54:45 10° 332° (NNW) 2,303 6.1 -10.9°
Sets 17:57:04 0° 336° (NNW) 3,221 6.9 -11.4°
